Hazlehurst, GA

9:20 PM EST on December 06, 2019 (GMT -0500)
Hazlehurst

Weather History for KAZE - October, 2019

Change the Weather History Date:

Tuesday, October 22, 2019

  Actual Average Record
Temperature  
Mean Temperature 72 °F -  
Max Temperature 82 °F 79 °F 85 °F (2017)
Min Temperature 58 °F 52 °F 46 °F (2016)
Cooling Degree Days 6    
Growing Degree Days 22 (Base 50)    
Moisture  
Dew Point 61 °F    
Average Humidity 66    
Maximum Humidity 92    
Minimum Humidity 29    
Precipitation  
Precipitation 0.00 in - - ()
Sea Level Pressure  
Sea Level Pressure 29.95 in    
Wind  
Wind Speed 3 mph ()    
Max Wind Speed 10 mph    
Max Gust Speed 20 mph    
Visibility 10.0 miles    
Events Rain    
Averages and records for this station are not official NWS values.
T = Trace of Precipitation, MM = Missing Value Source: Averaged Metar Reports

Daily Weather History Graph

Daily Weather History Graph

Search for Another Location

Airport or City:

Astronomy

Oct. 22, 2019 Rise Set
Actual Time 7:38 AM EDT 6:50 PM EDT
Civil Twilight 7:14 AM EDT 7:15 PM EDT
Nautical Twilight 6:45 AM EDT 7:44 PM EDT
Astronomical Twilight 6:17 AM EDT 8:12 PM EDT
Moon 1:17 AM EDT (10/22) 3:31 PM EDT (10/22)
Length of Visible Light 12h 01m
Length of Day
11h 11m
Last Quarter, 37% of the Moon is Illuminated
Oct 22
Last Quarter
Oct 27
New
Nov 4
First Quarter
Nov 12
Full
Nov 19
Last Quarter

Hourly Weather History & Observations

Time (EDT) Temp. Heat Index Dew Point Humidity Pressure Visibility Wind Dir Wind Speed Gust Speed Precip Events Conditions
12:15 AM 75.2 °F - 72.0 °F 90% 29.98 in 10.0 mi Calm Calm - N/A   Overcast
12:35 AM 75.2 °F - 72.0 °F 90% 29.98 in 10.0 mi Calm Calm - N/A   Overcast
12:55 AM 75.2 °F - 72.1 °F 90% 29.98 in 10.0 mi Calm Calm - N/A   Overcast
1:35 AM 75.2 °F - 72.5 °F 91% 29.97 in 10.0 mi Calm Calm - N/A   Overcast
1:55 AM 75.2 °F - 72.1 °F 90% 29.97 in 10.0 mi SSW 3.5 mph - N/A   Overcast
2:15 AM 75.2 °F - 72.5 °F 91% 29.97 in 10.0 mi Calm Calm - N/A   Overcast
2:35 AM 75.2 °F - 72.5 °F 91% 29.95 in 10.0 mi Calm Calm - N/A   Overcast
2:55 AM 75.2 °F - 72.5 °F 91% 29.94 in 10.0 mi Calm Calm - N/A   Overcast
3:15 AM 75.0 °F - 72.5 °F 92% 29.94 in 10.0 mi Calm Calm - N/A   Overcast
3:35 AM 75.0 °F - 72.5 °F 92% 29.91 in 7.0 mi Calm Calm - N/A   Overcast
3:55 AM 74.7 °F - 72.3 °F 92% 29.90 in 10.0 mi South 3.5 mph - N/A   Overcast
4:15 AM 74.8 °F - 72.5 °F 92% 29.87 in 10.0 mi South 4.6 mph - N/A Rain Light Rain
4:35 AM 74.8 °F - 72.3 °F 92% 29.86 in 10.0 mi South 4.6 mph - N/A Rain Light Rain
4:55 AM 74.8 °F - 72.5 °F 92% 29.86 in 10.0 mi South 6.9 mph - N/A   Overcast
5:15 AM 75.2 °F - 72.5 °F 91% 29.87 in 10.0 mi SSW 6.9 mph 16.1 mph N/A   Overcast
5:35 AM 74.8 °F - 72.5 °F 92% 29.88 in 10.0 mi SSW 8.1 mph - N/A   Overcast
5:55 AM 75.2 °F - 72.5 °F 91% 29.89 in 10.0 mi SW 8.1 mph - N/A   Overcast
6:15 AM 75.2 °F - 72.7 °F 92% 29.89 in 10.0 mi SSW 5.8 mph - N/A   Overcast
6:35 AM 75.2 °F - 72.7 °F 92% 29.89 in 10.0 mi SW 4.6 mph - N/A   Overcast
6:55 AM 75.2 °F - 72.7 °F 92% 29.90 in 10.0 mi SW 5.8 mph - N/A   Overcast
7:15 AM 75.2 °F - 72.1 °F 90% 29.89 in 10.0 mi South 4.6 mph - N/A   Scattered Clouds
7:35 AM 74.7 °F - 72.0 °F 91% 29.90 in 10.0 mi SSW 3.5 mph - N/A   Clear
7:55 AM 74.3 °F - 71.8 °F 92% 29.91 in 10.0 mi SW 3.5 mph - N/A   Clear
8:15 AM 74.3 °F - 72.0 °F 92% 29.92 in 10.0 mi Calm Calm - N/A   Mostly Cloudy
8:35 AM 74.7 °F - 72.1 °F 92% 29.92 in 10.0 mi SW 6.9 mph - N/A   Overcast
8:55 AM 75.6 °F - 70.9 °F 85% 29.93 in 10.0 mi SW 8.1 mph - N/A   Overcast
9:15 AM 76.1 °F - 70.5 °F 83% 29.94 in 10.0 mi WSW 5.8 mph - N/A   Overcast
9:35 AM 77.0 °F - 69.8 °F 78% 29.94 in 10.0 mi WSW 5.8 mph - N/A   Mostly Cloudy
9:55 AM 77.2 °F - 68.2 °F 74% 29.95 in 10.0 mi West 6.9 mph 16.1 mph N/A   Mostly Cloudy
10:15 AM 76.8 °F - 67.6 °F 73% 29.95 in 10.0 mi WSW 9.2 mph - N/A   Mostly Cloudy
10:30 AM 76.5 °F - 67.1 °F 73% 29.96 in 10.0 mi WSW 9.2 mph 17.3 mph N/A   Scattered Clouds
10:55 AM 77.9 °F - 67.3 °F 70% 29.95 in 10.0 mi West 4.6 mph - N/A   Mostly Cloudy
11:15 AM 78.3 °F - 66.7 °F 68% 29.96 in 10.0 mi West 10.4 mph 19.6 mph N/A   Overcast
11:35 AM 78.3 °F - 66.7 °F 68% 29.96 in 10.0 mi WSW 8.1 mph - N/A   Overcast
11:55 AM 79.2 °F - 66.9 °F 66% 29.96 in 10.0 mi West 3.5 mph 9.2 mph N/A   Overcast
12:15 PM 80.1 °F 82.3 °F 66.7 °F 64% 29.95 in 10.0 mi West 5.8 mph - N/A   Overcast
12:35 PM 82.2 °F 84.7 °F 66.9 °F 60% 29.94 in 10.0 mi West 5.8 mph - N/A   Overcast
12:55 PM 81.0 °F 83.2 °F 66.6 °F 61% 29.94 in 10.0 mi West 5.8 mph 17.3 mph N/A   Overcast
1:15 PM 82.0 °F 84.1 °F 66.0 °F 58% 29.94 in 10.0 mi West 5.8 mph - N/A   Overcast
1:35 PM 81.9 °F 84.1 °F 66.0 °F 59% 29.94 in 10.0 mi WNW 5.8 mph - N/A   Mostly Cloudy
1:55 PM 80.8 °F 82.6 °F 65.3 °F 59% 29.94 in 10.0 mi WNW 8.1 mph - N/A   Mostly Cloudy
2:15 PM 80.6 °F 82.2 °F 64.2 °F 57% 29.93 in 10.0 mi West 5.8 mph - N/A   Overcast
2:35 PM 81.3 °F 82.6 °F 63.3 °F 54% 29.92 in 10.0 mi Calm Calm - N/A   Mostly Cloudy
2:55 PM 80.6 °F 81.6 °F 61.7 °F 52% 29.92 in 10.0 mi West 8.1 mph - N/A   Mostly Cloudy
3:15 PM 81.0 °F 81.8 °F 61.2 °F 51% 29.92 in 10.0 mi West 6.9 mph - N/A   Mostly Cloudy
3:35 PM 81.5 °F 81.7 °F 59.0 °F 46% 29.92 in 10.0 mi WNW 10.4 mph - N/A   Scattered Clouds
3:55 PM 82.4 °F 81.3 °F 53.2 °F 36% 29.92 in 10.0 mi WNW 10.4 mph 17.3 mph N/A   Clear
4:15 PM 82.2 °F - 52.2 °F 35% 29.92 in 10.0 mi West 5.8 mph - N/A   Clear
4:35 PM 82.0 °F - 49.3 °F 32% 29.92 in 10.0 mi WNW 6.9 mph - N/A   Clear
4:55 PM 81.5 °F - 45.9 °F 29% 29.92 in 10.0 mi WNW 6.9 mph - N/A   Clear
5:15 PM 79.5 °F - 44.2 °F 29% 29.93 in 10.0 mi WNW 5.8 mph - N/A   Clear
5:35 PM 78.3 °F - 46.9 °F 33% 29.93 in 10.0 mi WNW 4.6 mph - N/A   Clear
5:55 PM 77.0 °F - 45.1 °F 32% 29.93 in 10.0 mi WNW 3.5 mph - N/A   Clear
6:15 PM 76.1 °F - 45.1 °F 33% 29.94 in 10.0 mi WNW 3.5 mph - N/A   Clear
6:35 PM 75.2 °F - 46.2 °F 36% 29.95 in 10.0 mi Calm Calm - N/A   Clear
6:55 PM 73.6 °F - 46.9 °F 39% 29.95 in 10.0 mi West 3.5 mph - N/A   Clear
7:15 PM 72.1 °F - 48.9 °F 44% 29.96 in 10.0 mi Calm Calm - N/A   Clear
7:35 PM 69.4 °F - 54.5 °F 59% 29.97 in 10.0 mi Calm Calm - N/A   Clear
7:55 PM 67.5 °F - 53.8 °F 61% 29.98 in 10.0 mi Calm Calm - N/A   Clear
8:15 PM 68.7 °F - 48.4 °F 48% 29.99 in 10.0 mi WNW 3.5 mph - N/A   Clear
8:35 PM 69.8 °F - 43.5 °F 39% 30.00 in 10.0 mi WNW 4.6 mph - N/A   Clear
8:55 PM 68.9 °F - 41.9 °F 37% 30.01 in 10.0 mi WNW 4.6 mph - N/A   Clear
9:15 PM 68.0 °F - 40.5 °F 37% 30.02 in 10.0 mi WNW 4.6 mph - N/A   Clear
9:35 PM 66.9 °F - 41.5 °F 40% 30.03 in 10.0 mi Calm Calm - N/A   Clear
9:55 PM 64.8 °F - 43.5 °F 46% 30.03 in 10.0 mi Calm Calm - N/A   Clear
10:15 PM 64.8 °F - 42.8 °F 45% 30.04 in 10.0 mi WNW 3.5 mph - N/A   Clear
10:35 PM 62.6 °F - 45.9 °F 54% 30.05 in 10.0 mi West 3.5 mph - N/A   Clear
10:55 PM 63.1 °F - 42.6 °F 47% 30.05 in 10.0 mi WNW 3.5 mph - N/A   Clear
11:15 PM 62.4 °F - 42.4 °F 48% 30.05 in 10.0 mi Calm Calm - N/A   Clear
11:35 PM 61.2 °F - 43.7 °F 53% 30.05 in 10.0 mi Calm Calm - N/A   Clear
11:55 PM 58.8 °F - 47.7 °F 66% 30.05 in 10.0 mi Calm Calm - N/A   Clear